Thedford, NE

12:34 PM CDT on October 18, 2017 (GMT -0500)
Thedford

Weather History for KTIF - January, 2013

Change the Weather History Date:

Thursday, January 3, 2013

  Actual Average (KANW) Record (KANW)
Temperature  
Mean Temperature 20 °F -  
Max Temperature 28 °F 34 °F 59 °F (2003)
Min Temperature 11 °F 14 °F -7 °F (1999)
Degree Days  
Heating Degree Days 46    
Moisture  
Dew Point 13 °F    
Average Humidity 75    
Maximum Humidity 89    
Minimum Humidity 56    
Precipitation  
Precipitation 0.00 in - - ()
Sea Level Pressure  
Sea Level Pressure 30.25 in    
Wind  
Wind Speed 9 mph (West)    
Max Wind Speed 16 mph    
Max Gust Speed 23 mph    
Visibility 10 miles    
Events Snow    
Averages and records for this station are not official NWS values.
T = Trace of Precipitation, MM = Missing Value Source: NWS Daily Summary

Daily Weather History Graph

Daily Weather History Graph

Search for Another Location

Airport or City:

Trip Planner

Search our weather history database for the weather conditions in past years. The results will help you decide how hot, cold, wet, or windy it might be!

Date:

Astronomy

Jan. 03, 2013 Rise Set
Actual Time 8:10 AM CST 5:23 PM CST
Civil Twilight 7:38 AM CST 5:55 PM CST
Nautical Twilight 7:03 AM CST 6:30 PM CST
Astronomical Twilight 6:30 AM CST 7:04 PM CST
Moon No Moon Rise 11:16 AM CST (1/3)
Length of Visible Light 10h 16m
Length of Day
9h 13m
Waning Gibbous, 65% of the Moon is Illuminated
Jan 3
Waning Gibbous
Jan 4
Last Quarter
Jan 11
New
Jan 18
First Quarter
Jan 26
Full

Hourly Weather History & Observations

Time (CST) Temp. Windchill Dew Point Humidity Pressure Visibility Wind Dir Wind Speed Gust Speed Precip Events Conditions
12:15 AM 23.5 °F 11.3 °F 19.4 °F 84% 30.26 in 10.0 mi NNW 13.8 mph 19.6 mph N/A   Overcast
12:35 AM 23.7 °F 11.0 °F 19.0 °F 82% 30.26 in 10.0 mi NNW 15.0 mph - N/A   Overcast
12:55 AM 23.5 °F 10.8 °F 19.2 °F 84% 30.26 in 10.0 mi NNW 15.0 mph 23.0 mph N/A   Overcast
1:15 AM 23.4 °F 10.6 °F 19.4 °F 85% 30.26 in 10.0 mi NNW 15.0 mph - N/A   Overcast
2:15 AM 23.0 °F 11.1 °F 18.1 °F 82% 30.27 in 7.0 mi NNW 12.7 mph 20.7 mph N/A Snow Light Snow
2:35 AM 23.0 °F 10.6 °F 17.6 °F 80% 30.28 in 10.0 mi NNW 13.8 mph 21.9 mph N/A   Overcast
2:55 AM 22.8 °F 9.4 °F 17.6 °F 80% 30.28 in 7.0 mi NNW 16.1 mph - N/A Snow Light Snow
3:15 AM 22.6 °F 11.3 °F 18.0 °F 82% 30.29 in 10.0 mi NNW 11.5 mph - N/A Snow Light Snow
3:35 AM 22.1 °F 12.0 °F 17.6 °F 83% 30.29 in 10.0 mi NNW 9.2 mph - N/A   Overcast
3:55 AM 21.9 °F 9.8 °F 17.1 °F 82% 30.29 in 10.0 mi NNW 12.7 mph - N/A   Overcast
4:15 AM 21.7 °F 11.5 °F 16.7 °F 81% 30.29 in 10.0 mi NW 9.2 mph - N/A   Overcast
4:35 AM 21.7 °F 11.5 °F 16.7 °F 81% 30.29 in 10.0 mi NW 9.2 mph - N/A   Overcast
4:55 AM 20.5 °F 11.7 °F 15.8 °F 82% 30.28 in 10.0 mi NW 6.9 mph - N/A   Overcast
5:15 AM 17.4 °F 8.0 °F 13.3 °F 84% 30.29 in 10.0 mi West 6.9 mph - N/A   Mostly Cloudy
5:35 AM 19.0 °F 12.3 °F 14.9 °F 84% 30.28 in 10.0 mi WNW 4.6 mph - N/A   Mostly Cloudy
5:55 AM 18.5 °F - 14.2 °F 83% 30.29 in 10.0 mi Calm Calm - N/A   Overcast
6:15 AM 19.4 °F 9.5 °F 15.1 °F 83% 30.29 in 10.0 mi WNW 8.1 mph - N/A   Overcast
6:35 AM 18.5 °F 11.7 °F 13.8 °F 82% 30.29 in 10.0 mi WNW 4.6 mph - N/A   Scattered Clouds
6:55 AM 16.2 °F 6.5 °F 12.2 °F 84% 30.30 in 10.0 mi West 6.9 mph - N/A   Clear
7:35 AM 13.6 °F 7.7 °F 10.6 °F 88% 30.31 in 10.0 mi WNW 3.5 mph - N/A   Clear
7:55 AM 13.3 °F - 10.6 °F 89% 30.31 in 10.0 mi Calm Calm - N/A   Mostly Cloudy
8:15 AM 14.9 °F 9.2 °F 12.2 °F 89% 30.31 in 10.0 mi West 3.5 mph - N/A   Overcast
8:35 AM 16.7 °F 9.6 °F 13.1 °F 86% 30.31 in 10.0 mi West 4.6 mph - N/A   Overcast
8:55 AM 17.8 °F 12.5 °F 13.6 °F 84% 30.31 in 10.0 mi West 3.5 mph - N/A   Overcast
9:35 AM 19.4 °F 14.3 °F 14.4 °F 81% 30.31 in 10.0 mi WNW 3.5 mph - N/A   Overcast
9:55 AM 21.0 °F 16.2 °F 15.1 °F 78% 30.31 in 10.0 mi West 3.5 mph - N/A   Overcast
10:15 AM 21.6 °F 13.0 °F 15.4 °F 77% 30.31 in 10.0 mi WSW 6.9 mph - N/A   Overcast
10:35 AM 22.5 °F 14.1 °F 15.6 °F 75% 30.31 in 10.0 mi WSW 6.9 mph - N/A   Overcast
10:55 AM 23.5 °F 14.5 °F 16.3 °F 74% 30.32 in 10.0 mi WSW 8.1 mph - N/A   Overcast
11:15 AM 24.3 °F 13.9 °F 15.4 °F 69% 30.31 in 10.0 mi West 10.4 mph - N/A   Overcast
11:35 AM 24.6 °F 15.1 °F 14.2 °F 65% 30.29 in 10.0 mi West 9.2 mph - N/A   Mostly Cloudy
11:55 AM 25.5 °F 16.2 °F 14.0 °F 62% 30.28 in 10.0 mi WSW 9.2 mph - N/A   Scattered Clouds
12:15 PM 25.9 °F 14.8 °F 13.6 °F 60% 30.27 in 10.0 mi WSW 12.7 mph 16.1 mph N/A   Scattered Clouds
12:35 PM 25.9 °F 15.3 °F 14.0 °F 61% 30.26 in 10.0 mi WSW 11.5 mph - N/A   Clear
12:55 PM 26.6 °F 16.8 °F 13.8 °F 59% 30.25 in 10.0 mi West 10.4 mph 16.1 mph N/A   Clear
1:15 PM 27.1 °F 18.2 °F 13.8 °F 57% 30.23 in 10.0 mi SW 9.2 mph - N/A   Clear
1:35 PM 27.9 °F 19.8 °F 14.4 °F 57% 30.23 in 10.0 mi WSW 8.1 mph - N/A   Clear
1:55 PM 28.2 °F 18.9 °F 14.9 °F 57% 30.22 in 10.0 mi SW 10.4 mph - N/A   Clear
2:15 PM 28.4 °F 19.1 °F 14.7 °F 57% 30.22 in 10.0 mi SW 10.4 mph - N/A   Clear
2:35 PM 28.4 °F 19.1 °F 14.4 °F 56% 30.22 in 10.0 mi WSW 10.4 mph - N/A   Clear
2:55 PM 28.2 °F 17.7 °F 14.7 °F 57% 30.21 in 10.0 mi WSW 12.7 mph - N/A   Clear
3:15 PM 28.4 °F 19.1 °F 14.9 °F 57% 30.21 in 10.0 mi West 10.4 mph - N/A   Clear
3:55 PM 28.0 °F 18.1 °F 14.9 °F 58% 30.21 in 10.0 mi WSW 11.5 mph - N/A   Clear
4:15 PM 27.9 °F 19.1 °F 14.7 °F 58% 30.21 in 10.0 mi WSW 9.2 mph - N/A   Clear
4:35 PM 27.3 °F 19.1 °F 14.4 °F 58% 30.21 in 10.0 mi WSW 8.1 mph - N/A   Clear
4:55 PM 26.2 °F 18.6 °F 13.8 °F 59% 30.21 in 10.0 mi WSW 6.9 mph - N/A   Clear
5:15 PM 24.1 °F 17.0 °F 13.3 °F 63% 30.21 in 10.0 mi WSW 5.8 mph - N/A   Clear
5:35 PM 22.3 °F 13.9 °F 12.4 °F 66% 30.21 in 10.0 mi WSW 6.9 mph - N/A   Clear
5:55 PM 19.6 °F 10.6 °F 11.3 °F 70% 30.21 in 10.0 mi WSW 6.9 mph - N/A   Clear
6:15 PM 18.3 °F 9.1 °F 11.1 °F 73% 30.21 in 10.0 mi WSW 6.9 mph - N/A   Clear
6:35 PM 17.6 °F 8.2 °F 10.6 °F 74% 30.21 in 10.0 mi SW 6.9 mph - N/A   Clear
6:55 PM 15.6 °F - 9.7 °F 77% 30.20 in 10.0 mi Calm Calm - N/A   Clear
7:15 PM 15.8 °F 7.2 °F 9.5 °F 76% 30.20 in 10.0 mi SW 5.8 mph - N/A   Clear
7:35 PM 16.2 °F - 10.2 °F 77% 30.21 in 10.0 mi Calm Calm - N/A   Clear
7:55 PM 13.5 °F 7.5 °F 8.1 °F 79% 30.20 in 10.0 mi WNW 3.5 mph - N/A   Clear
8:15 PM 14.9 °F - 9.3 °F 79% 30.20 in 10.0 mi Calm Calm - N/A   Clear
8:35 PM 15.1 °F 6.4 °F 9.1 °F 77% 30.19 in 10.0 mi West 5.8 mph - N/A   Clear
8:55 PM 14.2 °F 6.7 °F 8.6 °F 78% 30.19 in 10.0 mi West 4.6 mph - N/A   Clear
9:15 PM 13.8 °F 3.7 °F 8.2 °F 78% 30.19 in 10.0 mi West 6.9 mph - N/A   Clear
9:35 PM 12.7 °F 2.4 °F 7.5 °F 80% 30.19 in 10.0 mi West 6.9 mph - N/A   Clear
9:55 PM 12.4 °F 2.0 °F 7.2 °F 80% 30.18 in 10.0 mi West 6.9 mph - N/A   Clear
10:15 PM 11.8 °F - 6.6 °F 80% 30.18 in 10.0 mi Calm Calm - N/A   Clear
10:35 PM 12.9 °F 1.6 °F 7.5 °F 79% 30.18 in 10.0 mi West 8.1 mph - N/A   Clear
10:55 PM 13.1 °F 2.8 °F 7.0 °F 77% 30.18 in 10.0 mi WSW 6.9 mph - N/A   Clear
11:15 PM 12.6 °F 4.8 °F 6.6 °F 77% 30.17 in 10.0 mi WSW 4.6 mph - N/A   Clear
11:35 PM 11.7 °F 5.5 °F 5.9 °F 78% 30.18 in 10.0 mi West 3.5 mph - N/A   Clear
11:55 PM 11.5 °F 5.3 °F 5.9 °F 78% 30.17 in 10.0 mi WSW 3.5 mph - N/A   Clear